Location: Nitra
(0.0000°N, 18.0833°E)
Time: 15:53:06
(UTC+02:00)

A-11 Canister half - Pass Details

Date: 04 April 2023
Orbit: 1513 x 1686 km, 47.2° (Epoch: 02 June)

Event Time Altitude Azimuth Distance (km) Brightness Sun altitude
Exits shadow 06:19:34 - 281° (W) 4,218 10.7 -7.8°
Reaches altitude 10° 06:20:54 10° 276° (W) 3,916 10.5 -7.4°
Maximum altitude 06:28:12 23° 228° (SW) 2,988 10.1 -5.6°
Drops below altitude 10° 06:35:25 10° 180° (S) 3,831 11.0 -3.8°
Sets 06:39:28 0° 165° (SSE) 4,787 11.7 -2.8°
